Mojave, CA

10:13 PM PDT on August 22, 2017 (GMT -0700)
Mojave

Weather History for KMHV - September, 2013

Change the Weather History Date:

Sunday, September 22, 2013

  Actual Average Record
Temperature  
Mean Temperature 61 °F -  
Max Temperature 71 °F 87 °F 98 °F (1966)
Min Temperature 51 °F 55 °F 32 °F (2005)
Degree Days  
Heating Degree Days 4    
Growing Degree Days 11 (Base 50)    
Moisture  
Dew Point 38 °F    
Average Humidity 45    
Maximum Humidity 63    
Minimum Humidity 27    
Precipitation  
Precipitation 0.00 in - - ()
Sea Level Pressure  
Sea Level Pressure 29.87 in    
Wind  
Wind Speed 16 mph (West)    
Max Wind Speed 33 mph    
Max Gust Speed 41 mph    
Visibility 10 miles    
Events      
Averages and records for this station are not official NWS values.
T = Trace of Precipitation, MM = Missing Value Source: NWS Daily Summary

Daily Weather History Graph

Daily Weather History Graph

Search for Another Location

Airport or City:

Trip Planner

Search our weather history database for the weather conditions in past years. The results will help you decide how hot, cold, wet, or windy it might be!

Date:

Astronomy

Sep. 22, 2013 Rise Set
Actual Time 6:40 AM PDT 6:48 PM PDT
Civil Twilight 6:15 AM PDT 7:14 PM PDT
Nautical Twilight 5:46 AM PDT 7:43 PM PDT
Astronomical Twilight 5:16 AM PDT 8:13 PM PDT
Moon 8:51 PM PDT (9/22) 9:56 AM PDT (9/22)
Length of Visible Light 12h 58m
Length of Day
12h 08m
Waning Gibbous, 88% of the Moon is Illuminated
Sep 22
Waning Gibbous
Sep 26
Last Quarter
Oct 4
New
Oct 11
First Quarter
Oct 18
Full

Hourly Weather History & Observations

Time (PDT) Temp. Dew Point Humidity Pressure Visibility Wind Dir Wind Speed Gust Speed Precip Events Conditions
12:15 AM 57.2 °F 44.6 °F 63% 29.81 in 10.0 mi West 18.4 mph 28.8 mph N/A   Clear
12:35 AM 57.2 °F 42.8 °F 59% 29.82 in 10.0 mi West 12.7 mph 24.2 mph N/A   Clear
12:55 AM 57.2 °F 41.0 °F 55% 29.83 in 10.0 mi West 13.8 mph 17.3 mph N/A   Clear
1:15 AM 55.4 °F 41.0 °F 58% 29.84 in 10.0 mi West 9.2 mph - N/A   Clear
1:35 AM 55.4 °F 41.0 °F 58% 29.84 in 10.0 mi NNW 4.6 mph 17.3 mph N/A   Clear
1:55 AM 55.4 °F 41.0 °F 58% 29.84 in 10.0 mi West 8.1 mph 17.3 mph N/A   Clear
2:15 AM 55.4 °F 41.0 °F 58% 29.84 in 10.0 mi West 9.2 mph - N/A   Clear
2:35 AM 55.4 °F 41.0 °F 58% 29.84 in 10.0 mi West 5.8 mph - N/A   Partly Cloudy
2:55 AM 53.6 °F 39.2 °F 58% 29.83 in 10.0 mi West 15.0 mph 19.6 mph N/A   Scattered Clouds
3:15 AM 53.6 °F 39.2 °F 58% 29.83 in 10.0 mi West 9.2 mph 28.8 mph N/A   Partly Cloudy
3:35 AM 53.6 °F 39.2 °F 58% 29.85 in 10.0 mi SSW 9.2 mph - N/A   Mostly Cloudy
3:55 AM 53.6 °F 41.0 °F 62% 29.85 in 10.0 mi SSE 4.6 mph - N/A   Overcast
4:15 AM 53.6 °F 39.2 °F 58% 29.86 in 10.0 mi West 12.7 mph 18.4 mph N/A   Mostly Cloudy
4:35 AM 53.6 °F 39.2 °F 58% 29.87 in 10.0 mi West 13.8 mph 21.9 mph N/A   Partly Cloudy
4:55 AM 53.6 °F 37.4 °F 54% 29.87 in 10.0 mi WSW 8.1 mph 21.9 mph N/A   Clear
5:15 AM 53.6 °F 39.2 °F 58% 29.87 in 10.0 mi WSW 10.4 mph 18.4 mph N/A   Partly Cloudy
5:35 AM 51.8 °F 39.2 °F 62% 29.87 in 10.0 mi WSW 19.6 mph 31.1 mph N/A   Clear
5:55 AM 51.8 °F 39.2 °F 62% 29.83 in 10.0 mi West 33.4 mph 41.4 mph N/A   Clear
6:15 AM 51.8 °F 37.4 °F 58% 29.82 in 10.0 mi West 18.4 mph 27.6 mph N/A   Clear
6:35 AM 53.6 °F 35.6 °F 51% 29.80 in 10.0 mi North 15.0 mph 34.5 mph N/A   Clear
6:55 AM 55.4 °F 33.8 °F 44% 29.82 in 9.0 mi North 13.8 mph 25.3 mph N/A   Clear
7:15 AM 55.4 °F 32.0 °F 41% 29.84 in 10.0 mi NW 6.9 mph 28.8 mph N/A   Clear
7:35 AM 57.2 °F 32.0 °F 38% 29.83 in 10.0 mi NE 8.1 mph 27.6 mph N/A   Clear
7:55 AM 57.2 °F 32.0 °F 38% 29.83 in 10.0 mi NNE 11.5 mph 25.3 mph N/A   Clear
8:15 AM 59.0 °F 30.2 °F 34% 29.84 in 10.0 mi East 13.8 mph - N/A   Clear
8:35 AM 59.0 °F 32.0 °F 36% 29.86 in 10.0 mi East 8.1 mph - N/A   Clear
8:55 AM 59.0 °F 32.0 °F 36% 29.88 in 10.0 mi ENE 4.6 mph - N/A   Clear
9:15 AM 62.6 °F 32.0 °F 32% 29.89 in 10.0 mi West 12.7 mph - N/A   Clear
9:35 AM 62.6 °F 35.6 °F 37% 29.89 in 10.0 mi West 18.4 mph - N/A   Clear
9:55 AM 60.8 °F 37.4 °F 42% 29.90 in 10.0 mi WSW 24.2 mph - N/A   Clear
10:15 AM 62.6 °F 37.4 °F 39% 29.90 in 10.0 mi West 21.9 mph 25.3 mph N/A   Clear
10:35 AM 64.4 °F 37.4 °F 37% 29.90 in 10.0 mi West 25.3 mph 32.2 mph N/A   Clear
10:55 AM 64.4 °F 37.4 °F 37% 29.90 in 10.0 mi West 24.2 mph 29.9 mph N/A   Clear
11:15 AM 64.4 °F 37.4 °F 37% 29.90 in 10.0 mi West 27.6 mph 33.4 mph N/A   Clear
11:35 AM 66.2 °F 37.4 °F 35% 29.89 in 10.0 mi West 25.3 mph 33.4 mph N/A   Clear
11:55 AM 66.2 °F 35.6 °F 32% 29.89 in 10.0 mi West 24.2 mph 28.8 mph N/A   Clear
12:15 PM 66.2 °F 37.4 °F 35% 29.90 in 10.0 mi West 21.9 mph 26.5 mph N/A   Clear
12:35 PM 68.0 °F 37.4 °F 33% 29.89 in 10.0 mi West 23.0 mph 28.8 mph N/A   Clear
12:55 PM 68.0 °F 37.4 °F 33% 29.88 in 10.0 mi West 26.5 mph 31.1 mph N/A   Clear
1:15 PM 68.0 °F 37.4 °F 33% 29.88 in 10.0 mi West 23.0 mph - N/A   Clear
1:35 PM 69.8 °F 37.4 °F 31% 29.88 in 10.0 mi West 21.9 mph 27.6 mph N/A   Clear
1:55 PM 68.0 °F 37.4 °F 33% 29.88 in 10.0 mi West 21.9 mph 31.1 mph N/A   Clear
2:15 PM 69.8 °F 37.4 °F 31% 29.87 in 10.0 mi West 24.2 mph 29.9 mph N/A   Clear
2:35 PM 71.6 °F 35.6 °F 27% 29.87 in 10.0 mi West 21.9 mph 26.5 mph N/A   Clear
2:55 PM 69.8 °F 37.4 °F 31% 29.87 in 10.0 mi West 21.9 mph 31.1 mph N/A   Clear
3:15 PM 68.0 °F 39.2 °F 35% 29.87 in 10.0 mi West 24.2 mph 29.9 mph N/A   Clear
3:35 PM 68.0 °F 39.2 °F 35% 29.86 in 10.0 mi West 26.5 mph 33.4 mph N/A   Clear
3:55 PM 68.0 °F 39.2 °F 35% 29.86 in 10.0 mi WNW 24.2 mph 33.4 mph N/A   Clear
4:15 PM 68.0 °F 41.0 °F 37% 29.86 in 10.0 mi West 27.6 mph 34.5 mph N/A   Clear
4:35 PM 66.2 °F 39.2 °F 37% 29.86 in 10.0 mi West 24.2 mph 34.5 mph N/A   Clear
4:55 PM 66.2 °F 41.0 °F 40% 29.85 in 10.0 mi WNW 27.6 mph 33.4 mph N/A   Clear
5:15 PM 66.2 °F 39.2 °F 37% 29.86 in 10.0 mi West 27.6 mph 34.5 mph N/A   Clear
5:35 PM 66.2 °F 39.2 °F 37% 29.85 in 10.0 mi West 26.5 mph 32.2 mph N/A   Clear
5:55 PM 64.4 °F 41.0 °F 42% 29.85 in 10.0 mi West 26.5 mph 33.4 mph N/A   Clear
6:15 PM 64.4 °F 41.0 °F 42% 29.86 in 10.0 mi West 26.5 mph 33.4 mph N/A   Clear
6:35 PM 62.6 °F 41.0 °F 45% 29.86 in 10.0 mi West 16.1 mph 29.9 mph N/A   Clear
6:55 PM 60.8 °F 39.2 °F 45% 29.86 in 10.0 mi West 24.2 mph 29.9 mph N/A   Clear
7:15 PM 60.8 °F 39.2 °F 45% 29.87 in 10.0 mi West 19.6 mph - N/A   Clear
7:35 PM 60.8 °F 39.2 °F 45% 29.87 in 10.0 mi West 23.0 mph - N/A   Clear
7:55 PM 59.0 °F 39.2 °F 48% 29.88 in 10.0 mi West 21.9 mph - N/A   Clear
8:15 PM 59.0 °F 39.2 °F 48% 29.89 in 10.0 mi West 21.9 mph 29.9 mph N/A   Clear
8:35 PM 59.0 °F 39.2 °F 48% 29.90 in 10.0 mi West 21.9 mph - N/A   Clear
8:55 PM 59.0 °F 39.2 °F 48% 29.91 in 10.0 mi West 20.7 mph 26.5 mph N/A   Clear
9:15 PM 59.0 °F 39.2 °F 48% 29.91 in 10.0 mi West 23.0 mph 28.8 mph N/A   Clear
9:35 PM 59.0 °F 39.2 °F 48% 29.92 in 10.0 mi West 20.7 mph 26.5 mph N/A   Clear
9:55 PM 59.0 °F 39.2 °F 48% 29.92 in 10.0 mi West 18.4 mph - N/A   Clear
10:15 PM 59.0 °F 39.2 °F 48% 29.92 in 10.0 mi West 17.3 mph - N/A   Clear
10:35 PM 59.0 °F 39.2 °F 48% 29.93 in 10.0 mi West 15.0 mph - N/A   Clear
10:55 PM 59.0 °F 39.2 °F 48% 29.94 in 10.0 mi West 11.5 mph - N/A   Clear
11:15 PM 59.0 °F 39.2 °F 48% 29.94 in 10.0 mi West 11.5 mph - N/A   Clear
11:35 PM 59.0 °F 39.2 °F 48% 29.95 in 10.0 mi WNW 10.4 mph - N/A   Clear
11:55 PM 59.0 °F 37.4 °F 45% 29.95 in 10.0 mi North 5.8 mph - N/A   Clear